Hourly Data Report for May 16, 2018

DRYDEN REGIONAL
ONTARIO
Current Station Operator: NAVCAN

49°49'39.000" N
92°44'39.000" W
412.70 m
6032125
71527
YHD

Download Data

Hourly Data (May 2018)
Hourly Data Report for May 16, 2018
TIME
LST
Temp Definition
°C
Dew Point Definition
°C
Rel Hum Definition
%
Precip. Amount Definition
mm

Wind Dir Definition
10's deg

Wind Spd Definition
km/h
Visibility Definition
km
Stn Press Definition
kPa
Hmdx Definition


Wind Chill Definition


Weather Definition


00:00 13.4 11.3 87 0.0 29 8 16.1 95.88     LegendNANA
01:00 12.8 11.2 90 0.0 20 11 16.1 95.90     LegendNANA
02:00 12.3 10.9 91 0.0 20 13 16.1 95.84     LegendNANA
03:00 9.7 8.5 92 0.0 2 15 16.1 96.01     LegendNANA
04:00 7.4 6.5 94 0.2 2 13 16.1 96.09     Rain
05:00 5.9 5.0 94 0.0 3 17 16.1 96.16     LegendNANA
06:00 4.4 4.0 97 0.0 3 17 16.1 96.27     LegendNANA
07:00 4.7 3.9 95 0.0 2 11 16.1 96.40     LegendNANA
08:00 4.3 3.0 91 0.0 5 18 16.1 96.50     LegendNANA
09:00 4.8 2.8 87 0.0 1 15 16.1 96.60     LegendNANA
10:00 6.4 3.5 82 0.0 4 15 16.1 96.69     LegendNANA
11:00 6.6 2.8 77 0.0 36 18 16.1 96.80     LegendNANA
12:00 8.4 3.7 72 0.0 5 22 16.1 96.86     LegendNANA
13:00 7.5 2.8 72 0.0 3 17 16.1 96.94     LegendNANA
14:00 7.8 2.7 70 0.0 5 18 16.1 97.02     LegendNANA
15:00 8.5 2.1 64 0.0 3 21 16.1 97.04     LegendNANA
16:00 8.7 1.8 62 0.0 6 13 16.1 97.05     LegendNANA
17:00 8.5 1.9 63 0.0 4 15 16.1 97.10     LegendNANA
18:00 8.3 1.7 63 0.0 4 15 16.1 97.12     LegendNANA
19:00 8.0 1.5 63 0.0 6 11 16.1 97.13     LegendNANA
20:00 7.1 1.4 67 0.0   0 16.1 97.16     LegendNANA
21:00 6.3 1.0 69 0.0 12 4 16.1 97.22     LegendNANA
22:00 5.3 2.7 83 0.0 7 5 16.1 97.25     LegendNANA
23:00 3.8 1.9 87 0.0 8 5 16.1 97.28     LegendNANA

Notes on Data Quality.

Legend

  • E = Estimated
  • M = Missing
  • NA = Not Available*
  • [empty] = Indicates an unobserved value
Date modified: